Laramie, WY

2:30 AM MST on February 28, 2017 (GMT -0700)
Laramie Regional

Weather History for KLAR - February, 2013

Change the Weather History Date:

Friday, February 8, 2013

  Actual Average Record
Temperature  
Mean Temperature 28 °F 22 °F  
Max Temperature 46 °F 34 °F 63 °F (1954)
Min Temperature 10 °F 11 °F -31 °F (1989)
Degree Days  
Heating Degree Days 37 43  
Month to date heating degree days 280 344  
Since 1 July heating degree days 4941 5359  
Cooling Degree Days 0 0  
Month to date cooling degree days 0 0  
Year to date cooling degree days 0 0  
Moisture  
Dew Point 5 °F    
Average Humidity 42    
Maximum Humidity 67    
Minimum Humidity 17    
Precipitation  
Precipitation 0.00 in 0.01 in 0.26 in (1979)
Month to date precipitation T 0.09  
Year to date precipitation 0.15 0.36  
Sea Level Pressure  
Sea Level Pressure 29.84 in    
Wind  
Wind Speed 7 mph (SSE)    
Max Wind Speed 21 mph    
Max Gust Speed 25 mph    
Visibility 10 miles    
Events      
T = Trace of Precipitation, MM = Missing Value Source: NWS Daily Summary

Daily Weather History Graph

Daily Weather History Graph

Search for Another Location

Airport or City:

Trip Planner

Search our weather history database for the weather conditions in past years. The results will help you decide how hot, cold, wet, or windy it might be!

Date:

Astronomy

Feb. 08, 2013 Rise Set
Actual Time 7:05 AM MST 5:28 PM MST
Civil Twilight 6:37 AM MST 5:57 PM MST
Nautical Twilight 6:04 AM MST 6:29 PM MST
Astronomical Twilight 5:32 AM MST 7:01 PM MST
Moon 5:37 AM MST (2/8) 4:04 PM MST (2/8)
Length of Visible Light 11h 19m
Length of Day
10h 22m
Waning Crescent, 3% of the Moon is Illuminated
Feb 8
Waning Crescent
Feb 10
New
Feb 17
First Quarter
Feb 25
Full
Mar 4
Last Quarter

Hourly Weather History & Observations

Time (MST) Temp. Windchill Dew Point Humidity Pressure Visibility Wind Dir Wind Speed Gust Speed Precip Events Conditions
12:53 AM 14.0 °F 2.9 °F 5.0 °F 67% 29.99 in 10.0 mi SSW 8.1 mph - N/A   Clear
1:53 AM 18.0 °F 7.7 °F -0.9 °F 44% 29.95 in 10.0 mi WSW 8.1 mph - N/A   Clear
2:53 AM 12.9 °F 1.6 °F -0.0 °F 56% 29.96 in 10.0 mi West 8.1 mph - N/A   Clear
3:53 AM 14.0 °F 5.1 °F -0.9 °F 52% 29.96 in 10.0 mi SSW 5.8 mph - N/A   Clear
4:53 AM 12.0 °F - -0.9 °F 56% 30.02 in 10.0 mi Calm Calm - N/A   Clear
5:53 AM 17.1 °F - -0.9 °F 45% 30.00 in 10.0 mi Calm Calm - N/A   Clear
6:53 AM 14.0 °F 5.1 °F -0.0 °F 54% 30.04 in 10.0 mi ENE 5.8 mph - N/A   Clear
7:53 AM 23.0 °F 15.8 °F 1.0 °F 39% 29.98 in 10.0 mi ESE 5.8 mph - N/A   Clear
8:53 AM 25.0 °F 19.3 °F 9.0 °F 51% 29.96 in 10.0 mi East 4.6 mph - N/A   Clear
9:53 AM 27.0 °F - 9.0 °F 47% 29.95 in 10.0 mi Calm Calm - N/A   Clear
10:53 AM 37.0 °F - 12.0 °F 36% 29.88 in 10.0 mi Calm Calm - N/A   Clear
11:53 AM 41.0 °F 38.0 °F 7.0 °F 25% 29.82 in - South 4.6 mph - N/A   Clear
12:53 PM 44.1 °F 40.1 °F 7.0 °F 22% 29.79 in 10.0 mi ESE 6.9 mph - N/A   Clear
1:53 PM 45.0 °F 43.5 °F 6.1 °F 20% 29.73 in 10.0 mi Variable 3.5 mph - N/A   Clear
2:53 PM 43.0 °F 34.8 °F -0.9 °F 16% 29.74 in 10.0 mi SSE 18.4 mph - N/A   Clear
3:53 PM 41.0 °F 32.8 °F 1.0 °F 19% 29.74 in 10.0 mi SSE 16.1 mph - N/A   Partly Cloudy
4:53 PM 37.0 °F 28.9 °F 6.1 °F 28% 29.75 in 10.0 mi ESE 12.7 mph - N/A   Mostly Cloudy
5:53 PM 32.0 °F 23.0 °F 7.0 °F 35% 29.72 in 10.0 mi SE 11.5 mph - N/A   Mostly Cloudy
6:53 PM 30.0 °F 21.7 °F 9.0 °F 41% 29.78 in 10.0 mi SE 9.2 mph - N/A   Mostly Cloudy
7:53 PM 32.0 °F 23.6 °F 10.0 °F 40% 29.74 in 10.0 mi South 10.4 mph - N/A   Overcast
8:53 PM 30.0 °F 24.1 °F 10.9 °F 45% 29.70 in 10.0 mi NW 5.8 mph - N/A   Overcast
9:53 PM 28.9 °F 22.8 °F 10.9 °F 47% 29.67 in 10.0 mi East 5.8 mph - N/A   Overcast
10:53 PM 28.9 °F 22.8 °F 12.0 °F 49% 29.66 in 10.0 mi West 5.8 mph - N/A   Overcast
11:53 PM 27.0 °F 20.5 °F 10.0 °F 49% 29.63 in 10.0 mi SW 5.8 mph - N/A   Scattered Clouds